This is the latest recevied weather packets stored in our database for station/object WA6ODQ-13. If no packets are shown the sender has not sent any weather packets the latest 10 day(s).
| Time | Temp. | Humidity | Pressure | Rain* | Wind** | Luminosity | Snow |
|---|---|---|---|---|---|---|---|
| 1788062072 | 20.56° C | 62% | 1009.3 hPa | 0 mm | - | 0 W/m² | - |
| 1788061762 | 20.56° C | 61% | 1009.4 hPa | 0 mm | - | 0 W/m² | - |
| 1788061458 | 20.56° C | 61% | 1009.4 hPa | 0 mm | - | 0 W/m² | - |
| 1788061153 | 20.56° C | 61% | 1009.2 hPa | 0 mm | - | 0 W/m² | - |
| 1788060847 | 21.11° C | 60% | 1009 hPa | 0 mm | - | 0 W/m² | - |
| 1788060543 | 21.11° C | 59% | 1009 hPa | 0 mm | - | 0 W/m² | - |
| 1788060241 | 21.11° C | 59% | 1009.1 hPa | 0 mm | - | 0 W/m² | - |
| 1788059937 | 21.11° C | 58% | 1008.8 hPa | 0 mm | - | 0 W/m² | - |
| 1788059632 | 21.67° C | 58% | 1008.6 hPa | 0 mm | - | 0 W/m² | - |
| 1788059328 | 21.67° C | 58% | 1008.7 hPa | 0 mm | - | 0 W/m² | - |
| 1788059023 | 22.22° C | 57% | 1008.7 hPa | 0 mm | - | 0 W/m² | - |
| 1788058723 | 21.67° C | 57% | 1008.7 hPa | 0 mm | - | 0 W/m² | - |
| 1788058423 | 22.22° C | 57% | 1008.8 hPa | 0 mm | - | 1 W/m² | - |
| 1788058122 | 22.22° C | 57% | 1009 hPa | 0 mm | - | 1 W/m² | - |
| 1788057818 | 22.22° C | 56% | 1008.7 hPa | 0 mm | - | 2 W/m² | - |
| 1788057515 | 22.78° C | 55% | 1008.7 hPa | 0 mm | - | 4 W/m² | - |
| 1788057214 | 22.78° C | 55% | 1009 hPa | 0 mm | - | 6 W/m² | - |
| 1788056913 | 23.33° C | 54% | 1008.8 hPa | 0 mm | - | 9 W/m² | - |
| 1788056608 | 23.33° C | 53% | 1009.1 hPa | 0 mm | - | 11 W/m² | - |
| 1788056308 | 23.89° C | 52% | 1009 hPa | 0 mm | - | 14 W/m² | - |
| 1788056003 | 23.89° C | 51% | 1008.7 hPa | 0 mm | - | 17 W/m² | - |
| 1788055703 | 23.89° C | 51% | 1008.9 hPa | 0 mm | - | 21 W/m² | - |
| 1788055398 | 24.44° C | 51% | 1009.1 hPa | 0 mm | - | 23 W/m² | - |
| 1788055093 | 25° C | 50% | 1009.2 hPa | 0 mm | - | 36 W/m² | - |
| 1788054788 | 25° C | 49% | 1009.2 hPa | 0 mm | - | 43 W/m² | - |
* Rain latest hour (hover to see other rain measurements)
** Current wind speed in m/s (hover to see current wind gust speed)